Location: *
(55.5817°S, 142.4781°W)
Time: 06:44:08
(UTC+00:00)

Cosmos 2233 Rocket - Pass Details

Date: 29 April 2025
Orbit: 952 x 990 km, 82.9° (Epoch: 23 May)

Event Time Altitude Azimuth Distance (km) Brightness Sun altitude
Rises 14:16:33 0° 349° (N) 3,682 6.9 -22.0°
Reaches altitude 10° 14:19:02 10° 348° (NNW) 2,746 6.2 -21.7°
Maximum altitude 14:25:22 84° 258° (WSW) 1,012 3.9 -20.8°
Drops below altitude 10° 14:31:50 10° 169° (S) 2,793 6.5 -19.9°
Sets 14:34:23 0° 168° (SSE) 3,748 7.2 -19.5°
